Погода в Ивановке

Украина / Луганская область     48°30′05″N   39°45′53″E
темп.,
°C
ветер,
м/с
пор.,
м/с
влажн.,
%
обл.,
%
осадки,
мм/ч
давл.,
гПа
погр.,
м
2 марта, вт
вт223:00−1ююв11821 0.0 102825
02:00−1юз22840 0.0 102886
05:00−1зюз37840 0.0 1026242
08:00+1зюз7107632 0.0 1025796
11:00+4з8125999 0.0 10231136
14:00+4з81264100 0.0 10201001
17:00+3зюз61374100 0.0 1017763
20:00+3зюз81578100 0.1 1015821
3 марта, ср
ср323:00+1з81397100 0.6 1013695
02:00+1зсз71297100 1.5 1013614
05:00+1ссз71297100 0.9 1013693
08:00+1ссз7107896 1.0 10171026
11:00+1сз7107496 0.1 10181096
14:00+2сз8126598 0.1 10201624
17:00+1сз5116888 0.1 1021518
20:00−1зсз4107844 0.1 1023409
4 марта, чт
чт423:00−1з47800 0.0 1023229
02:00−1зюз59790 0.0 1023286
05:00−1зюз512780 0.0 1021382
08:00+2зюз711660 0.0 1021643
11:00+6зюз811500 0.0 10191107
14:00+7зюз812500 0.0 10171240
17:00+4юз614640 0.0 1014446
20:00+3юз917720 0.0 1014564
5 марта, пт
пт523:00+3юз918751 0.0 1013573
02:00+3юз9178229 0.0 1012561
05:00+2зюз7148691 0.0 1012547
08:00+4зюз8138393 0.0 1013588
11:00+6зюз8117598 0.0 1013642
14:00+8юз7117192 0.0 1013811
17:00+6юз6117787 0.1 1012705
20:00+5ююз6138093 0.2 1012495
6 марта, сб
сб623:00+4юз91684100 0.0 1011462
02:00+4юз81588100 0.0 1010462
05:00+4зюз51190100 0.1 1010491
08:00+2ссз5797100 0.4 1012322
11:00+1с5683100 0.3 1013623
14:00+1с4693100 0.6 1014411
17:00+1с5666100 0.4 10151002
20:00−1с4772100 0.4 1017624